Location: Penton Mewsey
(51.2167°N, 1.5167°W)
Time: 18:59:36
(UTC+00:00)

H-2A R/B - Pass Details

Date: 30 March 2020
Orbit: 734 x 836 km, 98.2° (Epoch: 04 June)

Event Time Altitude Azimuth Distance (km) Brightness Sun altitude
Rises 20:08:47 0° 185° (S) 3,333 5.1 -14.6°
Reaches altitude 10° 20:11:16 10° 192° (SSW) 2,392 4.4 -14.9°
Maximum altitude 20:16:16 42° 262° (W) 1,130 3.3 -15.6°
Drops below altitude 10° 20:21:11 10° 333° (NNW) 2,346 5.4 -16.3°
Sets 20:23:36 0° 341° (NNW) 3,262 6.0 -16.6°
